Location: *
(43.4667°N, 11.6833°E)
Time: 07:34:55
(UTC+00:00)

ARGOS Delta rocket - Pass Details

Date: 19 July 2019
Orbit: 636 x 837 km, 96.5° (Epoch: 25 August)

Event Time Altitude Azimuth Distance (km) Brightness Sun altitude
Exits shadow 22:36:25 68° 270° (W) 702 3.7 -25.0°
Drops below altitude 10° 22:40:53 10° 344° (NNW) 2,101 7.3 -25.2°
Sets 22:43:11 0° 347° (NNW) 3,045 8.5 -25.2°
